Time,TemperatureF,DewpointF,PressureIn,WindDirection,WindDirectionDegrees,WindSpeedMPH,WindSpeedGustMPH,Humidity,HourlyPrecipIn,Conditions,Clouds,dailyrainin,SoftwareType,DateUTC
2013-10-11 00:00:00,72.7,58.9,29.86,SE,130,0.0,6.9,62,0.00,,---,0.00,VWS V14.00,2013-10-11 05:00:00,
2013-10-11 00:20:00,72.3,59.0,29.86,South,172,0.0,8.3,63,0.00,,---,0.00,VWS V14.00,2013-10-11 05:20:00,
2013-10-11 00:30:00,72.3,59.0,29.86,South,174,0.0,6.7,63,0.00,,---,0.00,VWS V14.00,2013-10-11 05:30:00,
2013-10-11 00:40:00,72.1,59.3,29.86,SE,134,0.0,7.8,64,0.00,,---,0.00,VWS V14.00,2013-10-11 05:40:00,
2013-10-11 00:50:00,72.0,59.6,29.86,SSW,201,2.7,6.7,65,0.00,,---,0.00,VWS V14.00,2013-10-11 05:50:00,
2013-10-11 01:00:00,72.0,59.6,29.86,SSW,199,0.0,8.7,65,0.00,,---,0.00,VWS V14.00,2013-10-11 06:00:00,
2013-10-11 01:10:00,72.0,60.0,29.86,South,187,4.0,6.3,66,0.00,,---,0.00,VWS V14.00,2013-10-11 06:10:00,
2013-10-11 01:20:00,72.0,60.4,29.86,SE,132,0.0,6.3,67,0.00,,---,0.00,VWS V14.00,2013-10-11 06:20:00,
2013-10-11 01:30:00,72.0,60.4,29.83,SE,140,0.0,7.4,67,0.00,,---,0.00,VWS V14.00,2013-10-11 06:30:00,
2013-10-11 01:40:00,71.8,60.7,29.83,SSE,157,3.1,6.3,68,0.00,,---,0.00,VWS V14.00,2013-10-11 06:40:00,
2013-10-11 01:50:00,71.6,60.5,29.83,SW,232,0.0,4.9,68,0.00,,---,0.00,VWS V14.00,2013-10-11 06:50:00,
2013-10-11 02:00:00,71.6,60.9,29.86,SE,137,0.0,7.8,69,0.00,,---,0.00,VWS V14.00,2013-10-11 07:00:00,
2013-10-11 02:10:00,71.4,61.1,29.86,SSE,166,3.1,8.7,70,0.00,,---,0.00,VWS V14.00,2013-10-11 07:10:00,
2013-10-11 02:20:00,71.2,61.0,29.86,SW,226,0.0,4.9,70,0.00,,---,0.00,VWS V14.00,2013-10-11 07:20:00,
2013-10-11 02:30:00,71.1,61.2,29.86,WSW,239,0.0,3.1,71,0.00,,---,0.00,VWS V14.00,2013-10-11 07:30:00,
2013-10-11 02:40:00,71.2,61.4,29.86,SW,217,0.0,0.0,71,0.00,,---,0.00,VWS V14.00,2013-10-11 07:40:00,
2013-10-11 02:50:00,71.2,61.8,29.86,SSW,212,0.0,3.1,72,0.00,,---,0.00,VWS V14.00,2013-10-11 07:50:00,
2013-10-11 03:00:00,71.1,62.0,29.86,East,80,0.0,4.5,73,0.00,,---,0.00,VWS V14.00,2013-10-11 08:00:00,
2013-10-11 03:10:00,71.1,62.4,29.86,SE,138,0.0,4.0,74,0.00,,---,0.00,VWS V14.00,2013-10-11 08:10:00,
2013-10-11 03:20:00,71.1,62.4,29.86,SE,132,0.0,0.0,74,0.00,,---,0.00,VWS V14.00,2013-10-11 08:20:00,
2013-10-11 03:30:00,71.1,62.7,29.86,SSW,206,0.0,4.0,75,0.00,,---,0.00,VWS V14.00,2013-10-11 08:30:00,
2013-10-11 03:40:00,71.2,62.9,29.86,SW,217,0.0,2.7,75,0.00,,---,0.00,VWS V14.00,2013-10-11 08:40:00,
2013-10-11 03:50:00,71.2,63.3,29.86,WNW,286,0.0,3.1,76,0.00,,---,0.00,VWS V14.00,2013-10-11 08:50:00,
2013-10-11 04:00:00,71.1,63.1,29.86,SW,214,0.0,2.7,76,0.00,,---,0.00,VWS V14.00,2013-10-11 09:00:00,
2013-10-11 04:10:00,70.9,63.3,29.86,SSE,160,0.0,4.0,77,0.00,,---,0.00,VWS V14.00,2013-10-11 09:10:00,
2013-10-11 04:20:00,70.7,63.1,29.86,SW,227,0.0,5.4,77,0.00,,---,0.00,VWS V14.00,2013-10-11 09:20:00,
2013-10-11 04:30:00,70.7,63.5,29.86,SSE,162,0.0,8.7,78,0.00,,---,0.00,VWS V14.00,2013-10-11 09:30:00,
2013-10-11 04:40:00,70.5,63.3,29.86,SE,131,0.0,4.5,78,0.00,,---,0.00,VWS V14.00,2013-10-11 09:40:00,
2013-10-11 04:50:00,70.3,63.5,29.86,SSW,206,0.0,3.1,79,0.00,,---,0.00,VWS V14.00,2013-10-11 09:50:00,
2013-10-11 05:00:00,70.3,63.5,29.86,South,178,0.0,2.7,79,0.00,,---,0.00,VWS V14.00,2013-10-11 10:00:00,
2013-10-11 05:10:00,70.2,63.7,29.86,NE,55,4.9,4.9,80,0.00,,---,0.00,VWS V14.00,2013-10-11 10:10:00,
2013-10-11 05:20:00,70.2,63.7,29.86,South,175,0.0,5.8,80,0.00,,---,0.00,VWS V14.00,2013-10-11 10:20:00,
2013-10-11 05:30:00,70.2,63.7,29.83,South,190,0.0,4.0,80,0.00,,---,0.00,VWS V14.00,2013-10-11 10:30:00,
2013-10-11 05:40:00,70.2,64.1,29.86,SSW,202,0.0,4.5,81,0.00,,---,0.00,VWS V14.00,2013-10-11 10:40:00,
2013-10-11 05:50:00,70.3,64.2,29.86,South,178,0.0,2.7,81,0.00,,---,0.00,VWS V14.00,2013-10-11 10:50:00,
2013-10-11 06:00:00,70.5,64.4,29.86,ENE,62,0.0,4.9,81,0.00,,---,0.00,VWS V14.00,2013-10-11 11:00:00,
2013-10-11 06:10:00,70.5,64.4,29.86,SSE,159,2.7,7.4,81,0.00,,---,0.00,VWS V14.00,2013-10-11 11:10:00,
2013-10-11 06:20:00,70.5,64.8,29.86,SSW,201,0.0,6.3,82,0.00,,---,0.00,VWS V14.00,2013-10-11 11:20:00,
2013-10-11 06:30:00,70.5,64.8,29.86,South,191,0.0,4.5,82,0.00,,---,0.00,VWS V14.00,2013-10-11 11:30:00,
2013-10-11 06:40:00,70.3,64.6,29.86,SSW,213,0.0,5.4,82,0.00,,---,0.00,VWS V14.00,2013-10-11 11:40:00,
2013-10-11 06:50:00,70.3,64.6,29.86,SSW,207,0.0,6.7,82,0.00,,---,0.00,VWS V14.00,2013-10-11 11:50:00,
2013-10-11 07:00:00,70.3,64.6,29.86,SSW,201,0.0,3.1,82,0.00,,---,0.00,VWS V14.00,2013-10-11 12:00:00,
2013-10-11 07:10:00,70.3,64.6,29.89,SW,225,0.0,0.0,82,0.00,,---,0.00,VWS V14.00,2013-10-11 12:10:00,
2013-10-11 07:20:00,70.3,64.9,29.89,SW,218,0.0,4.0,83,0.00,,---,0.00,VWS V14.00,2013-10-11 12:20:00,
2013-10-11 07:30:00,70.3,64.9,29.89,SW,217,0.0,0.0,83,0.00,,---,0.00,VWS V14.00,2013-10-11 12:30:00,
2013-10-11 07:40:00,70.2,64.8,29.89,South,178,0.0,3.6,83,0.00,,---,0.00,VWS V14.00,2013-10-11 12:40:00,
2013-10-11 07:50:00,70.2,64.8,29.89,SSW,202,0.0,3.6,83,0.00,,---,0.00,VWS V14.00,2013-10-11 12:50:00,
2013-10-11 08:00:00,70.3,64.9,29.89,South,183,0.0,4.0,83,0.00,,---,0.00,VWS V14.00,2013-10-11 13:00:00,
2013-10-11 08:10:00,70.3,64.9,29.89,South,178,0.0,2.7,83,0.00,,---,0.00,VWS V14.00,2013-10-11 13:10:00,
2013-10-11 08:20:00,70.3,65.3,29.89,South,179,0.0,3.1,84,0.00,,---,0.00,VWS V14.00,2013-10-11 13:20:00,
2013-10-11 08:30:00,70.7,65.6,29.92,SSW,193,0.0,2.7,84,0.00,,---,0.00,VWS V14.00,2013-10-11 13:30:00,
2013-10-11 08:40:00,70.7,65.3,29.92,SSE,153,0.0,6.3,83,0.00,,---,0.00,VWS V14.00,2013-10-11 13:40:00,
2013-10-11 08:50:00,70.7,65.3,29.92,SE,126,0.0,3.6,83,0.00,,---,0.00,VWS V14.00,2013-10-11 13:50:00,
2013-10-11 09:00:00,71.1,65.6,29.92,SSE,150,0.0,4.5,83,0.00,,---,0.00,VWS V14.00,2013-10-11 14:00:00,
2013-10-11 09:10:00,71.2,65.8,29.92,SSE,152,0.0,0.0,83,0.00,,---,0.00,VWS V14.00,2013-10-11 14:10:00,
2013-10-11 09:20:00,71.8,66.3,29.92,ESE,106,0.0,5.8,83,0.00,,---,0.00,VWS V14.00,2013-10-11 14:20:00,
2013-10-11 09:30:00,72.3,66.9,29.92,SSE,149,0.0,4.9,83,0.00,,---,0.00,VWS V14.00,2013-10-11 14:30:00,
2013-10-11 09:40:00,72.3,66.5,29.92,SSW,210,2.7,6.7,82,0.00,,---,0.00,VWS V14.00,2013-10-11 14:40:00,
2013-10-11 09:50:00,72.7,66.9,29.92,SSE,149,0.0,6.9,82,0.00,,---,0.00,VWS V14.00,2013-10-11 14:50:00,
2013-10-11 10:00:00,73.0,66.9,29.92,SSE,151,0.0,5.4,81,0.00,,---,0.00,VWS V14.00,2013-10-11 15:00:00,
2013-10-11 10:10:00,73.4,67.2,29.92,WSW,255,0.0,4.9,81,0.00,,---,0.00,VWS V14.00,2013-10-11 15:10:00,
2013-10-11 10:20:00,73.9,67.8,29.92,SSW,196,4.0,7.4,81,0.00,,---,0.00,VWS V14.00,2013-10-11 15:20:00,
2013-10-11 10:30:00,74.5,67.9,29.92,SE,128,0.0,8.7,80,0.00,,---,0.00,VWS V14.00,2013-10-11 15:30:00,
2013-10-11 10:40:00,75.7,69.1,29.92,SSW,193,0.0,6.9,80,0.00,,---,0.00,VWS V14.00,2013-10-11 15:40:00,
2013-10-11 10:50:00,76.5,69.1,29.92,South,179,0.0,9.2,78,0.00,,---,0.00,VWS V14.00,2013-10-11 15:50:00,
2013-10-11 11:00:00,77.0,69.6,29.92,SW,225,4.0,6.9,78,0.00,,---,0.00,VWS V14.00,2013-10-11 16:00:00,
2013-10-11 11:10:00,77.7,69.9,29.89,NW,316,0.0,6.7,77,0.00,,---,0.00,VWS V14.00,2013-10-11 16:10:00,
2013-10-11 11:20:00,77.9,69.7,29.89,SW,231,0.0,7.8,76,0.00,,---,0.00,VWS V14.00,2013-10-11 16:20:00,
2013-10-11 11:30:00,78.8,70.2,29.89,SW,227,2.7,6.3,75,0.00,,---,0.00,VWS V14.00,2013-10-11 16:30:00,
2013-10-11 11:40:00,79.3,70.3,29.89,WSW,246,2.7,4.5,74,0.00,,---,0.00,VWS V14.00,2013-10-11 16:40:00,
2013-10-11 11:50:00,79.7,69.9,29.89,WSW,241,3.6,5.8,72,0.00,,---,0.00,VWS V14.00,2013-10-11 16:50:00,
2013-10-11 12:00:00,80.2,70.4,29.89,SW,235,2.7,6.3,72,0.00,,---,0.00,VWS V14.00,2013-10-11 17:00:00,
2013-10-11 12:10:00,81.0,70.3,29.89,SSE,149,0.0,7.8,70,0.00,,---,0.00,VWS V14.00,2013-10-11 17:10:00,
2013-10-11 12:20:00,81.3,70.2,29.89,South,191,0.0,7.8,69,0.00,,---,0.00,VWS V14.00,2013-10-11 17:20:00,
2013-10-11 12:30:00,82.2,70.6,29.89,SSW,198,3.6,6.3,68,0.00,,---,0.00,VWS V14.00,2013-10-11 17:30:00,
2013-10-11 12:40:00,82.8,70.7,29.86,SSW,210,0.0,5.4,67,0.00,,---,0.00,VWS V14.00,2013-10-11 17:40:00,
2013-10-11 12:50:00,83.3,70.8,29.86,SSE,159,0.0,6.3,66,0.00,,---,0.00,VWS V14.00,2013-10-11 17:50:00,
2013-10-11 13:00:00,83.8,70.8,29.86,SSW,193,0.0,6.7,65,0.00,,---,0.00,VWS V14.00,2013-10-11 18:00:00,
2013-10-11 13:10:00,84.4,70.9,29.86,WSW,249,0.0,6.7,64,0.00,,---,0.00,VWS V14.00,2013-10-11 18:10:00,
2013-10-11 13:20:00,84.9,70.9,29.86,WSW,248,3.1,6.9,63,0.00,,---,0.00,VWS V14.00,2013-10-11 18:20:00,
2013-10-11 13:30:00,84.7,70.3,29.86,South,189,0.0,7.4,62,0.00,,---,0.00,VWS V14.00,2013-10-11 18:30:00,
2013-10-11 13:40:00,84.2,69.3,29.86,SSW,203,3.1,8.3,61,0.00,,---,0.00,VWS V14.00,2013-10-11 18:40:00,
2013-10-11 13:50:00,84.6,69.6,29.86,SSW,202,3.6,4.5,61,0.00,,---,0.00,VWS V14.00,2013-10-11 18:50:00,
2013-10-11 14:00:00,85.3,69.8,29.83,WSW,252,3.6,6.9,60,0.00,,---,0.00,VWS V14.00,2013-10-11 19:00:00,
2013-10-11 14:10:00,84.7,68.8,29.83,SSW,211,3.6,5.4,59,0.00,,---,0.00,VWS V14.00,2013-10-11 19:10:00,
2013-10-11 14:20:00,84.4,68.5,29.83,West,269,4.0,5.8,59,0.00,,---,0.00,VWS V14.00,2013-10-11 19:20:00,
2013-10-11 14:30:00,84.4,68.5,29.83,South,189,0.0,6.9,59,0.00,,---,0.00,VWS V14.00,2013-10-11 19:30:00,
2013-10-11 14:40:00,86.2,70.2,29.83,SSW,199,3.6,5.4,59,0.00,,---,0.00,VWS V14.00,2013-10-11 19:40:00,
2013-10-11 14:50:00,88.3,71.2,29.83,SSE,149,0.0,5.4,57,0.00,,---,0.00,VWS V14.00,2013-10-11 19:50:00,
2013-10-11 15:00:00,87.1,69.0,29.80,SW,228,0.0,6.7,55,0.00,,---,0.00,VWS V14.00,2013-10-11 20:00:00,
2013-10-11 15:10:00,87.6,69.5,29.80,South,185,3.1,5.8,55,0.00,,---,0.00,VWS V14.00,2013-10-11 20:10:00,
2013-10-11 15:20:00,87.8,69.1,29.80,WSW,247,0.0,6.3,54,0.00,,---,0.00,VWS V14.00,2013-10-11 20:20:00,
2013-10-11 15:30:00,88.2,69.4,29.80,SW,216,3.6,5.4,54,0.00,,---,0.00,VWS V14.00,2013-10-11 20:30:00,
2013-10-11 15:40:00,87.6,68.4,29.80,South,188,0.0,5.8,53,0.00,,---,0.00,VWS V14.00,2013-10-11 20:40:00,
2013-10-11 15:50:00,88.0,69.3,29.80,SW,222,4.0,7.8,54,0.00,,---,0.00,VWS V14.00,2013-10-11 20:50:00,
2013-10-11 16:00:00,88.9,69.0,29.80,ENE,57,3.6,7.4,52,0.00,,---,0.00,VWS V14.00,2013-10-11 21:00:00,
2013-10-11 16:10:00,89.4,68.9,29.80,South,188,4.0,6.9,51,0.00,,---,0.00,VWS V14.00,2013-10-11 21:10:00,
2013-10-11 16:20:00,87.6,67.8,29.80,SSW,196,0.0,6.7,52,0.00,,---,0.00,VWS V14.00,2013-10-11 21:20:00,
2013-10-11 16:30:00,86.0,66.9,29.80,South,182,0.0,4.5,53,0.00,,---,0.00,VWS V14.00,2013-10-11 21:30:00,
2013-10-11 16:40:00,85.3,66.8,29.80,West,269,2.7,4.5,54,0.00,,---,0.00,VWS V14.00,2013-10-11 21:40:00,
2013-10-11 16:50:00,85.3,66.8,29.80,South,185,2.7,5.8,54,0.00,,---,0.00,VWS V14.00,2013-10-11 21:50:00,
2013-10-11 17:00:00,85.3,67.3,29.80,SW,219,0.0,6.3,55,0.00,,---,0.00,VWS V14.00,2013-10-11 22:00:00,
2013-10-11 17:10:00,85.3,67.3,29.80,SW,222,0.0,6.7,55,0.00,,---,0.00,VWS V14.00,2013-10-11 22:10:00,
2013-10-11 17:20:00,85.1,67.7,29.80,South,191,0.0,5.4,56,0.00,,---,0.00,VWS V14.00,2013-10-11 22:20:00,
2013-10-11 17:30:00,84.7,67.3,29.80,SW,221,0.0,4.0,56,0.00,,---,0.00,VWS V14.00,2013-10-11 22:30:00,
2013-10-11 17:40:00,84.7,67.3,29.80,WSW,242,0.0,4.9,56,0.00,,---,0.00,VWS V14.00,2013-10-11 22:40:00,
2013-10-11 17:50:00,84.9,68.0,29.80,South,185,0.0,4.0,57,0.00,,---,0.00,VWS V14.00,2013-10-11 22:50:00,
2013-10-11 18:00:00,84.7,67.8,29.80,SW,226,0.0,3.6,57,0.00,,---,0.00,VWS V14.00,2013-10-11 23:00:00,
2013-10-11 18:10:00,84.2,67.3,29.80,SSW,204,0.0,6.7,57,0.00,,---,0.00,VWS V14.00,2013-10-11 23:10:00,
2013-10-11 18:20:00,83.8,67.5,29.80,NE,46,0.0,4.9,58,0.00,,---,0.00,VWS V14.00,2013-10-11 23:20:00,
2013-10-11 18:30:00,83.3,67.0,29.80,East,79,0.0,3.1,58,0.00,,---,0.00,VWS V14.00,2013-10-11 23:30:00,
2013-10-11 18:40:00,83.1,67.8,29.80,SW,222,2.7,6.3,60,0.00,,---,0.00,VWS V14.00,2013-10-11 23:40:00,
2013-10-11 18:50:00,82.9,67.6,29.80,SSW,203,0.0,3.1,60,0.00,,---,0.00,VWS V14.00,2013-10-11 23:50:00,
2013-10-11 19:00:00,82.9,67.6,29.80,SSW,197,0.0,4.5,60,0.00,,---,0.00,VWS V14.00,2013-10-12 00:00:00,
2013-10-11 19:10:00,82.9,67.6,29.80,South,187,0.0,3.6,60,0.00,,---,0.00,VWS V14.00,2013-10-12 00:10:00,
2013-10-11 19:20:00,82.8,67.5,29.80,SSW,197,0.0,2.7,60,0.00,,---,0.00,VWS V14.00,2013-10-12 00:20:00,
2013-10-11 19:30:00,82.8,67.5,29.80,South,191,0.0,4.0,60,0.00,,---,0.00,VWS V14.00,2013-10-12 00:30:00,
2013-10-11 19:40:00,82.4,67.1,29.83,South,181,0.0,3.1,60,0.00,,---,0.00,VWS V14.00,2013-10-12 00:40:00,
2013-10-11 19:50:00,82.0,67.3,29.83,South,178,0.0,0.0,61,0.00,,---,0.00,VWS V14.00,2013-10-12 00:50:00,
2013-10-11 20:00:00,81.7,67.4,29.83,SSE,149,0.0,3.1,62,0.00,,---,0.00,VWS V14.00,2013-10-12 01:00:00,
2013-10-11 20:10:00,81.3,67.5,29.83,SSE,152,0.0,4.5,63,0.00,,---,0.00,VWS V14.00,2013-10-12 01:10:00,
2013-10-11 20:20:00,80.8,67.5,29.83,SSE,150,0.0,5.8,64,0.00,,---,0.00,VWS V14.00,2013-10-12 01:20:00,
2013-10-11 20:30:00,80.4,67.6,29.83,SE,143,0.0,5.8,65,0.00,,---,0.00,VWS V14.00,2013-10-12 01:30:00,
2013-10-11 20:40:00,80.2,67.9,29.83,ESE,117,0.0,3.1,66,0.00,,---,0.00,VWS V14.00,2013-10-12 01:40:00,
2013-10-11 20:50:00,79.9,67.9,29.83,ESE,122,0.0,4.5,67,0.00,,---,0.00,VWS V14.00,2013-10-12 01:50:00,
2013-10-11 21:00:00,79.9,67.9,29.83,South,178,0.0,5.4,67,0.00,,---,0.00,VWS V14.00,2013-10-12 02:00:00,
2013-10-11 21:10:00,79.7,68.2,29.83,SSW,199,0.0,2.7,68,0.00,,---,0.00,VWS V14.00,2013-10-12 02:10:00,
2013-10-11 21:20:00,79.7,68.6,29.83,ESE,120,0.0,4.0,69,0.00,,---,0.00,VWS V14.00,2013-10-12 02:20:00,
2013-10-11 21:30:00,79.5,68.5,29.83,SSE,154,0.0,4.5,69,0.00,,---,0.00,VWS V14.00,2013-10-12 02:30:00,
2013-10-11 21:40:00,79.7,68.6,29.83,South,191,0.0,5.4,69,0.00,,---,0.00,VWS V14.00,2013-10-12 02:40:00,
2013-10-11 21:50:00,79.5,68.5,29.83,South,182,3.6,6.7,69,0.00,,---,0.00,VWS V14.00,2013-10-12 02:50:00,
2013-10-11 22:00:00,79.5,68.9,29.83,South,169,0.0,4.5,70,0.00,,---,0.00,VWS V14.00,2013-10-12 03:00:00,
2013-10-11 22:10:00,79.3,68.7,29.83,ESE,117,0.0,7.4,70,0.00,,---,0.00,VWS V14.00,2013-10-12 03:10:00,
2013-10-11 22:20:00,79.2,68.5,29.83,SSE,150,0.0,9.6,70,0.00,,---,0.00,VWS V14.00,2013-10-12 03:20:00,
2013-10-11 22:30:00,79.0,68.4,29.86,SSE,153,0.0,5.4,70,0.00,,---,0.00,VWS V14.00,2013-10-12 03:30:00,
2013-10-11 22:40:00,79.0,68.8,29.86,SSE,152,0.0,6.9,71,0.00,,---,0.00,VWS V14.00,2013-10-12 03:40:00,
2013-10-11 22:50:00,79.0,68.8,29.86,ESE,111,0.0,5.8,71,0.00,,---,0.00,VWS V14.00,2013-10-12 03:50:00,
2013-10-11 23:00:00,78.8,69.0,29.86,SSW,211,0.0,3.6,72,0.00,,---,0.00,VWS V14.00,2013-10-12 04:00:00,
2013-10-11 23:10:00,78.8,69.0,29.86,SSW,200,0.0,4.5,72,0.00,,---,0.00,VWS V14.00,2013-10-12 04:10:00,
2013-10-11 23:20:00,78.8,69.0,29.86,SSW,208,0.0,5.4,72,0.00,,---,0.00,VWS V14.00,2013-10-12 04:20:00,
2013-10-11 23:30:00,78.4,69.1,29.86,SSW,207,0.0,6.7,73,0.00,,---,0.00,VWS V14.00,2013-10-12 04:30:00,
2013-10-11 23:40:00,78.3,68.9,29.86,South,183,0.0,3.1,73,0.00,,---,0.00,VWS V14.00,2013-10-12 04:40:00,
2013-10-11 23:50:00,78.1,68.7,29.86,SSE,153,0.0,6.7,73,0.00,,---,0.00,VWS V14.00,2013-10-12 04:50:00,